Regional Weather Roundup
Issued by NWS

Home | Current Version | Previous Version | Text Only | Print | Product List | Glossary On
Versions: 1 2 3 4 5 6 7 8 9 10 11 12 13 14 15 16 17 18 19 20 21 22 23 24 25 26 27 28 29 30 31 32 33 34 35 36 37 38 39 40 41 42 43 44 45 46 47 48 49 50
000
ASUS43 KDMX 271108
RWRIA

WEATHER ROUNDUP FOR IOWA
NATIONAL WEATHER SERVICE DES MOINES IA
600 AM CDT WED JUL 27 2016

NOTE: "FAIR" INDICATES FEW OR NO CLOUDS BELOW 12,000 FEET WITH NO
SIGNIFICANT WEATHER AND/OR OBSTRUCTIONS TO VISIBILITY.

* - THESE STATIONS ARE NOT NWS STATIONS...THUS NOT UNDER NWS
QUALITY CONTROL.  THEY ALSO DO NOT REPORT WEATHER SUCH
AS PRECIPITATION OR FOG.

IAZ001>003-012>014-020>022-031>034-043>046-271200-
   NORTHWEST IOWA

CITY           SKY/WX    TMP DP  RH WIND       PRES   REMARKS
CARROLL *      CLOUDY    64  64 100 SE5       29.98F
CHEROKEE *     CLOUDY    68  66  96 S3        29.97R
DENISON *      CLOUDY    70  64  83 SE8       29.94F
LE MARS *      CLOUDY    68  66  94 NE6       29.97R
SHELDON *      CLOUDY    66  66 100 S7        29.98R
SIOUX CITY     CLOUDY    71  67  87 E9        29.92F
SPENCER        PTCLDY    66  63  90 CALM      29.98S
STORM LAKE *   CLOUDY    66  64  94 S7        29.99R
$$

IAZ055>058-069>071-079>083-090>094-271200-
   SOUTHWEST IOWA

CITY           SKY/WX    TMP DP  RH WIND       PRES   REMARKS
ATLANTIC *     CLOUDY    64  64 100 CALM      29.98F
CLARINDA *       N/A     64  64 100 MISG      30.01F
COUNCIL BLFS * PTCLDY    68  66  94 SE10      29.93F
CRESTON *      CLOUDY    63  63 100 S6        30.02F
HARLAN  *      CLOUDY    66  64  94 SE3       30.00F
LAMONI         PTCLDY    64  64 100 CALM      30.02S
RED OAK *      CLOUDY    66  64  94 CALM      29.98F
SHENANDOAH *     N/A     66  66 100 CALM      29.98F
$$

IAZ047>049-059>061-072>074-084-271200-
   CENTRAL IOWA

CITY           SKY/WX    TMP DP  RH WIND       PRES   REMARKS
AMES           FOG       61  61 100 CALM      30.00F VSB 1/4
ANKENY *         N/A    N/A N/A N/A MISG        N/A
BOONE *          N/A     64  63  94 CALM      29.99F
CHARITON *       N/A    N/A N/A N/A MISG        N/A
DES MOINES     PTCLDY    71  66  84 CALM      29.99F
GRINNELL*      CLEAR     64  62  94 CALM      30.02F
KNOXVILLE *    CLEAR     66  64  94 CALM      29.99F
MARSHALLTOWN   CLOUDY    62  62 100 CALM      30.00S
NEWTON *       CLEAR     63  63 100 CALM      30.00F
PELLA *          N/A     62  61  97 CALM      30.01F FOG
PERRY *          N/A     62  62  99 E3        29.99F FOG
$$

IAZ004>006-015-016-023>025-035-036-271200-
   NORTH CENTRAL IOWA

CITY           SKY/WX    TMP DP  RH WIND       PRES   REMARKS
ALGONA *       CLOUDY    66  64  94 S6        29.99S
ESTHERVILLE    CLOUDY    64  64 100 S6        29.98R
FORT DODGE *   PTCLDY    66  63  88 CALM      30.00S
MASON CITY     CLOUDY    63  62  97 S5        30.01F
FOREST CITY *    N/A     61  61 100 CALM      30.00S
IOWA FALLS *     N/A     63  61  93 CALM      30.02F
$$

IAZ007>011-017>019-026>030-037>042-050>054-066-271200-
   NORTHEAST IOWA

CITY           SKY/WX    TMP DP  RH WIND       PRES   REMARKS
CEDAR RAPIDS   CLEAR     63  63 100 CALM      30.01S
CHARLES CITY * CLEAR     64  64 100 SE3       30.01F
CLINTON *      CLEAR     64  62  93 E3        30.03R
DECORAH *      PTCLDY    64  64 100 SE3       30.02F
DUBUQUE        CLEAR     65  62  90 CALM      30.04S
MONTICELLO *   PTCLDY    63  61  94 CALM      30.02S
WATERLOO       CLEAR     63  61  93 CALM      30.00S
$$

IAZ064-065-067-068-078-271200-
   EAST CENTRAL IOWA

CITY           SKY/WX    TMP DP  RH WIND       PRES   REMARKS
DAVENPORT      PTCLDY    64  62  93 NE5       30.03R
IOWA CITY      CLEAR     66  63  90 CALM      30.02F
MT. PLEASANT * PTCLDY    67  67 100 CALM      30.01S
MUSCATINE *    CLEAR     64  63  94 CALM      30.01S FOG
QUAD CITIES    CLEAR     66  63  90 CALM      30.02R
$$

IAZ062-063-075>077-085>089-095>099-271200-
   SOUTHEAST IOWA

CITY           SKY/WX    TMP DP  RH WIND       PRES   REMARKS
BURLINGTON     CLEAR     68  67  96 CALM      30.01S
FAIRFIELD *    CLEAR     66  64  94 CALM      30.01S
KEOKUK *       MOCLDY    70  68  94 CALM      30.00S
CENTERVILLE *    N/A     63  61  94 CALM      30.03S
OTTUMWA        FOG       61  60  97 CALM      30.01S VSB 1/2
WASHINGTON *   PTCLDY    64  64 100 CALM      30.02F
$$

ABBREVIATIONS USED IN REMARKS
   TC - TEMPERATURES IN CELSIUS
  WCI - WIND CHILL INDEX
   HX - HEAT INDEX
  VSB - VISIBILITY
$$




USA.gov is the U.S. government's official web portal to all federal, state and local government web resources and services.